Location: Newark
(36.7000°N, 45.1333°E)
Time: 11:14:35
(UTC+00:00)

LightSail 2 - Pass Details

Date: 20 January 2020
Orbit: 698 x 723 km, 24.0° (Epoch: 25 February)

Event Time Altitude Azimuth Distance (km) Brightness Sun altitude
Rises 16:59:25 0° 244° (WSW) 3,096 9.3 -33.4°
Reaches altitude 10° 17:02:26 10° 227° (SW) 2,182 8.1 -34.0°
Enters shadow 17:04:01 16° 211° (SSW) 1,831 7.5 -34.3°
